User: anonymous   Login
Location: Ballingbuur
(53.0000°N, 5.7667°E)
Time: 23:53:04
(UTC+00:00)
Language:

ERBS - Orbit

View from above orbital plane
View from above orbital plane
View from above satellite
View from above satellite

Ground track
Ground track

The orbit data is extracted from the following two-line orbital elements,

1 15354U 84108B   21061.61924700  .00005998  00000-0  10633-3 0  9995
2 15354  57.0064  32.7278 0010260 151.4420 208.7203 15.51720250  7880
Epoch (UTC): 02 March 2021 14:51:42
Eccentricity: 0.0010260
inclination: 57.0064°
perigee height: 405 km
apogee height: 418 km
right ascension of ascending node: 32.7278°
argument of perigee: 151.4420°
revolutions per day: 15.51720250
mean anomaly at epoch: 208.7203°
orbit number at epoch: 788

The dashed part of the orbit path shows where the satellite is in the earth's shadow,  

DLR